Location: Nitra
(0.0000°N, 18.0833°E)
Time: 06:02:22
(UTC+01:00)

Palapa 6 Rocket - Pass Details

Date: 24 January 2021
Orbit: 485 x 1216 km, 22.7° (Epoch: 04 March)

Event Time Altitude Azimuth Distance (km) Brightness Sun altitude
Rises 19:08:32 0° 289° (WNW) 3,537 7.8 -16.2°
Reaches altitude 10° 19:11:25 10° 286° (WNW) 2,467 6.9 -16.9°
Maximum altitude 19:17:11 64° 206° (SSW) 798 3.7 -18.2°
Enters shadow 19:20:31 19° 128° (SE) 1,529 4.8 -19.0°
